Change the Weather History Date:

Tuesday, September 17, 2013

  Actual Average Record
Temperature  
Mean Temperature 71 °F 58 °F  
Max Temperature 87 °F 75 °F 94 °F (2014)
Min Temperature 55 °F 42 °F 26 °F (1965)
Degree Days  
Heating Degree Days 0 7  
Month to date heating degree days 2 77  
Since 1 July heating degree days 2 123  
Cooling Degree Days 6 0  
Month to date cooling degree days 61 20  
Year to date cooling degree days 688 390  
Growing Degree Days 22 (Base 50)    
Moisture  
Dew Point 45 °F    
Average Humidity 39    
Maximum Humidity 60    
Minimum Humidity 17    
Precipitation  
Precipitation T in 0.03 in 0.86 in (1947)
Month to date precipitation 0.72 0.45  
Year to date precipitation 4.75 8.52  
Snow  
Snow 0.00 in - - ()
Month to date snowfall 0.0  
Since 1 July snowfall 0.0  
Since 1 September snowfall 0.0  
Snow Depth 0.00 in    
Sea Level Pressure  
Sea Level Pressure 29.66 in    
Wind  
Wind Speed 17 mph (South)    
Max Wind Speed 32 mph    
Max Gust Speed 39 mph    
Visibility 10 miles    
Events Rain , Thunderstorm    
T = Trace of Precipitation, MM = Missing Value Source: NWS Daily Summary

Daily Weather History Graph

Daily Weather History Graph

Search for Another Location

Airport or City:

Trip Planner

Search our weather history database for the weather conditions in past years. The results will help you decide how hot, cold, wet, or windy it might be!

Date:

Astronomy

Sep. 17, 2013 Rise Set
Actual Time 7:12 AM MDT 7:36 PM MDT
Civil Twilight 6:44 AM MDT 8:04 PM MDT
Nautical Twilight 6:10 AM MDT 8:37 PM MDT
Astronomical Twilight 5:36 AM MDT 9:12 PM MDT
Moon 6:26 PM MDT (9/17) 5:09 AM MDT (9/17)
Length of Visible Light 13h 20m
Length of Day
12h 23m
Waxing Gibbous, 96% of the Moon is Illuminated
Sep 17
Waxing Gibbous
Sep 19
Full
Sep 26
Last Quarter
Oct 4
New
Oct 11
First Quarter

Hourly Weather History & Observations

Time (MDT) Temp. Dew Point Humidity Pressure Visibility Wind Dir Wind Speed Gust Speed Precip Events Conditions
12:08 AM 69.8 °F 48.2 °F 46% 29.90 in 10.0 mi South 6.9 mph - N/A Thunderstorm Clear
12:37 AM 66.2 °F 46.4 °F 49% 29.94 in 9.0 mi WSW 10.4 mph 32.2 mph 0.00 in Rain , Thunderstorm Light Thunderstorms and Rain
12:53 AM 66.0 °F 46.0 °F 48% 29.76 in 10.0 mi SSE 6.9 mph - 0.01 in Thunderstorm Thunderstorm
1:15 AM 62.6 °F 46.4 °F 55% 29.90 in 10.0 mi SE 11.5 mph - N/A   Clear
1:53 AM 64.0 °F 45.0 °F 50% 29.73 in 10.0 mi ESE 10.4 mph - N/A   Clear
2:53 AM 64.9 °F 44.1 °F 47% 29.70 in 10.0 mi ENE 10.4 mph - 0.00 in Rain Light Rain
3:53 AM 68.0 °F 45.0 °F 43% 29.67 in 10.0 mi Variable 4.6 mph - 0.00 in   Scattered Clouds
4:48 AM 75.2 °F 44.6 °F 34% 29.81 in 10.0 mi South 20.7 mph 29.9 mph N/A Thunderstorm Mostly Cloudy
4:53 AM 75.0 °F 44.1 °F 33% 29.64 in 10.0 mi South 23.0 mph 28.8 mph N/A Thunderstorm Scattered Clouds
5:18 AM 73.4 °F 44.6 °F 36% 29.80 in 10.0 mi South 26.5 mph 35.7 mph N/A   Partly Cloudy
5:50 AM 73.4 °F 44.6 °F 36% 29.80 in 10.0 mi South 26.5 mph 33.4 mph 0.00 in   Scattered Clouds
5:53 AM 73.9 °F 45.0 °F 35% 29.63 in 10.0 mi South 25.3 mph 33.4 mph 0.00 in Rain , Thunderstorm Light Thunderstorms and Rain
6:24 AM 71.6 °F 46.4 °F 41% 29.80 in 10.0 mi South 26.5 mph 36.8 mph 0.00 in Rain , Thunderstorm Light Thunderstorms and Rain
6:53 AM 73.0 °F 44.1 °F 35% 29.63 in 10.0 mi South 31.1 mph 39.1 mph 0.00 in Rain , Thunderstorm Light Thunderstorms and Rain
7:53 AM 72.0 °F 45.0 °F 38% 29.65 in 10.0 mi SSE 15.0 mph 25.3 mph 0.00 in   Mostly Cloudy
8:53 AM 73.9 °F 46.0 °F 37% 29.64 in 10.0 mi South 23.0 mph 31.1 mph N/A   Scattered Clouds
9:53 AM 79.0 °F 45.0 °F 30% 29.62 in 10.0 mi South 25.3 mph 32.2 mph N/A   Partly Cloudy
10:53 AM 82.0 °F 43.0 °F 25% 29.61 in 10.0 mi South 24.2 mph 35.7 mph N/A   Scattered Clouds
11:53 AM 84.0 °F 46.0 °F 26% 29.59 in 10.0 mi South 25.3 mph 34.5 mph N/A   Mostly Cloudy
12:53 PM 86.0 °F 42.1 °F 21% 29.57 in 10.0 mi South 23.0 mph 34.5 mph N/A   Mostly Cloudy
1:53 PM 87.1 °F 37.9 °F 18% 29.52 in 10.0 mi SSW 23.0 mph 33.4 mph N/A   Scattered Clouds
2:53 PM 86.0 °F 39.0 °F 19% 29.49 in 10.0 mi South 20.7 mph 28.8 mph N/A   Scattered Clouds
3:20 PM 78.8 °F 44.6 °F 30% 29.67 in 10.0 mi West 19.6 mph 24.2 mph N/A   Mostly Cloudy
3:53 PM 75.9 °F 45.0 °F 33% 29.51 in 10.0 mi WNW 20.7 mph 25.3 mph N/A   Mostly Cloudy
4:25 PM 71.6 °F 42.8 °F 35% 29.70 in 10.0 mi SSW 11.5 mph - N/A Thunderstorm Thunderstorm
4:53 PM 66.0 °F 45.0 °F 47% 29.56 in 10.0 mi West 12.7 mph 25.3 mph 0.00 in Rain , Thunderstorm Light Thunderstorms and Rain
5:53 PM 64.9 °F 48.0 °F 54% 29.55 in 10.0 mi SSE 10.4 mph - 0.00 in Rain , Thunderstorm Light Thunderstorms and Rain
6:53 PM 64.9 °F 48.9 °F 56% 29.56 in 10.0 mi East 6.9 mph - 0.00 in   Scattered Clouds
7:53 PM 64.9 °F 46.9 °F 52% 29.57 in 10.0 mi SSW 4.6 mph - N/A   Mostly Cloudy
8:53 PM 60.1 °F 46.0 °F 60% 29.57 in 10.0 mi ESE 3.5 mph - N/A   Clear
9:53 PM 57.9 °F 41.0 °F 53% 29.59 in 10.0 mi SSW 4.6 mph - N/A   Clear
10:53 PM 62.1 °F 39.9 °F 44% 29.60 in 10.0 mi SSW 15.0 mph - N/A   Clear
11:53 PM 61.0 °F 41.0 °F 48% 29.64 in 10.0 mi SW 23.0 mph 28.8 mph N/A   Clear